This is the latest recevied weather packets stored in our database for station/object N4AR. If no packets are shown the sender has not sent any weather packets the latest 10 day(s).
| Time | Temp. | Humidity | Pressure | Rain* | Wind** | Luminosity | Snow |
|---|---|---|---|---|---|---|---|
| 1777846665 | 18.33° C | 30% | 1016.4 hPa | 0 mm | - | 234 W/m² | - |
| 1777846363 | 18.89° C | 30% | 1016.3 hPa | 0 mm | - | 256 W/m² | - |
| 1777846059 | 19.44° C | 28% | 1016.2 hPa | 0 mm | - | 275 W/m² | - |
| 1777845756 | 19.44° C | 28% | 1016.3 hPa | 0 mm | - | 295 W/m² | - |
| 1777845453 | 18.89° C | 27% | 1016.2 hPa | 0 mm | - | 315 W/m² | - |
| 1777845151 | 18.89° C | 27% | 1016.2 hPa | 0 mm | - | 336 W/m² | - |
| 1777844849 | 18.89° C | 28% | 1016.1 hPa | 0 mm | - | 357 W/m² | - |
| 1777844545 | 18.89° C | 28% | 1016 hPa | 0 mm | - | 377 W/m² | - |
| 1777844243 | 19.44° C | 27% | 1015.9 hPa | 0 mm | - | 397 W/m² | - |
| 1777843940 | 18.89° C | 27% | 1016 hPa | 0 mm | - | 418 W/m² | - |
| 1777843637 | 18.89° C | 27% | 1016 hPa | 0 mm | - | 439 W/m² | - |
| 1777843335 | 19.44° C | 27% | 1016.1 hPa | 0 mm | - | 457 W/m² | - |
| 1777843032 | 20° C | 26% | 1015.9 hPa | 0 mm | - | 477 W/m² | - |
| 1777842728 | 19.44° C | 27% | 1016.1 hPa | 0 mm | - | 495 W/m² | - |
| 1777842423 | 19.44° C | 27% | 1016.4 hPa | 0 mm | - | 513 W/m² | - |
| 1777842121 | 18.89° C | 29% | 1016.1 hPa | 0 mm | - | 529 W/m² | - |
| 1777841815 | 18.33° C | 26% | 1016 hPa | 0 mm | - | 549 W/m² | - |
| 1777841512 | 18.33° C | 29% | 1016 hPa | 0 mm | - | 567 W/m² | - |
| 1777841209 | 18.89° C | 26% | 1016.1 hPa | 0 mm | - | 583 W/m² | - |
| 1777840907 | 20° C | 27% | 1016.1 hPa | 0 mm | - | 602 W/m² | - |
| 1777840603 | 19.44° C | 26% | 1015.8 hPa | 0 mm | - | 619 W/m² | - |
| 1777840301 | 18.33° C | 26% | 1015.8 hPa | 0 mm | - | 635 W/m² | - |
| 1777839998 | 18.33° C | 28% | 1015.9 hPa | 0 mm | - | 650 W/m² | - |
| 1777839696 | 17.78° C | 27% | 1015.9 hPa | 0 mm | - | 666 W/m² | - |
| 1777839394 | 18.33° C | 29% | 1016.1 hPa | 0 mm | - | 678 W/m² | - |
* Rain latest hour (hover to see other rain measurements)
** Current wind speed in m/s (hover to see current wind gust speed)